Location: Aulus
(42.7909°N, 1.3399°E)
Time: 07:28:00
(UTC+00:00)

Terra - Pass Details

Date: 19 May 2025
Orbit: 690 x 691 km, 98.0° (Epoch: 18 June)

Event Time Altitude Azimuth Distance (km) Brightness Sun altitude
Exits shadow 20:50:08 18° 170° (S) 1,677 3.3 -14.7°
Maximum altitude 20:53:40 82° 256° (WSW) 703 1.8 -15.1°
Drops below altitude 10° 20:58:23 10° 345° (NNW) 2,151 5.3 -15.7°
Sets 21:00:39 0° 347° (NNW) 3,072 6.3 -16.0°
